Lima, OH

11:17 AM EDT on June 28, 2017 (GMT -0400)
Lima Allen County

Weather History for KAOH - January, 2013

Change the Weather History Date:

Wednesday, January 2, 2013

  Actual Average (KFDY) Record (KFDY)
Temperature  
Mean Temperature 14 °F -  
Max Temperature 19 °F 33 °F 59 °F (2000)
Min Temperature 10 °F 20 °F -4 °F (1974)
Degree Days  
Heating Degree Days 50    
Moisture  
Dew Point 9 °F    
Average Humidity 76    
Maximum Humidity 88    
Minimum Humidity 64    
Precipitation  
Precipitation 0.00 in - - ()
Sea Level Pressure  
Sea Level Pressure 30.21 in    
Wind  
Wind Speed 6 mph (SW)    
Max Wind Speed 8 mph    
Max Gust Speed -    
Visibility 8 miles    
Events      
Averages and records for this station are not official NWS values.
T = Trace of Precipitation, MM = Missing Value Source: NWS Daily Summary

Daily Weather History Graph

Daily Weather History Graph

Search for Another Location

Airport or City:

Trip Planner

Search our weather history database for the weather conditions in past years. The results will help you decide how hot, cold, wet, or windy it might be!

Date:

Astronomy

Jan. 02, 2013 Rise Set
Actual Time 8:00 AM EST 5:20 PM EST
Civil Twilight 7:29 AM EST 5:51 PM EST
Nautical Twilight 6:55 AM EST 6:25 PM EST
Astronomical Twilight 6:22 AM EST 6:58 PM EST
Moon 10:54 PM EST (1/2) 10:39 AM EST (1/2)
Length of Visible Light 10h 21m
Length of Day
9h 20m
Waning Gibbous, 75% of the Moon is Illuminated
Jan 2
Waning Gibbous
Jan 4
Last Quarter
Jan 11
New
Jan 18
First Quarter
Jan 26
Full

Hourly Weather History & Observations

Time (EST) Temp. Windchill Dew Point Humidity Pressure Visibility Wind Dir Wind Speed Gust Speed Precip Events Conditions
12:53 AM 17.1 °F 10.0 °F 10.9 °F 77% 30.14 in 8.0 mi SW 4.6 mph - N/A   Scattered Clouds
1:53 AM 18.0 °F 8.7 °F 12.9 °F 81% 30.14 in 6.0 mi WSW 6.9 mph - N/A   Haze
2:34 AM 15.8 °F 8.6 °F 12.2 °F 86% 30.10 in 5.0 mi West 4.6 mph - N/A   Overcast
2:53 AM 16.0 °F 5.3 °F 12.0 °F 84% 30.17 in 8.0 mi West 8.1 mph - N/A   Mostly Cloudy
3:04 AM 15.8 °F 6.1 °F 10.4 °F 79% 30.11 in 9.0 mi West 6.9 mph - N/A   Partly Cloudy
3:53 AM 15.1 °F 7.7 °F 10.9 °F 84% 30.17 in 7.0 mi WSW 4.6 mph - N/A   Clear
4:53 AM 15.1 °F 5.2 °F 10.0 °F 80% 30.17 in 10.0 mi WSW 6.9 mph - N/A   Clear
5:53 AM 12.9 °F 2.6 °F 9.0 °F 84% 30.19 in 8.0 mi WSW 6.9 mph - N/A   Clear
6:53 AM 12.0 °F 4.1 °F 8.1 °F 84% 30.19 in 7.0 mi WSW 4.6 mph - N/A   Clear
7:53 AM 10.9 °F 2.9 °F 7.0 °F 84% 30.19 in 6.0 mi SW 4.6 mph - N/A   Clear
8:53 AM 10.9 °F 4.7 °F 8.1 °F 88% 30.22 in 6.0 mi SW 3.5 mph - N/A   Clear
9:53 AM 12.9 °F 3.8 °F 9.0 °F 84% 30.24 in 7.0 mi SW 5.8 mph - N/A   Clear
10:53 AM 15.1 °F 6.4 °F 10.0 °F 80% 30.26 in 7.0 mi WSW 5.8 mph - N/A   Clear
11:53 AM 18.0 °F 8.7 °F 10.9 °F 74% 30.26 in 8.0 mi WSW 6.9 mph - N/A   Clear
12:53 PM 19.0 °F 13.9 °F 10.9 °F 71% 30.23 in 7.0 mi SW 3.5 mph - N/A   Clear
1:53 PM 19.9 °F 12.1 °F 12.0 °F 71% 30.22 in 8.0 mi SW 5.8 mph - N/A   Clear
2:53 PM 19.9 °F 10.1 °F 12.0 °F 71% 30.22 in 8.0 mi SSW 8.1 mph - N/A   Clear
3:53 PM 19.0 °F 12.3 °F 10.0 °F 68% 30.22 in 8.0 mi South 4.6 mph - N/A   Clear
4:53 PM 18.0 °F 9.8 °F 8.1 °F 65% 30.23 in 9.0 mi SSW 5.8 mph - N/A   Clear
5:53 PM 16.0 °F 8.8 °F 7.0 °F 68% 30.24 in 9.0 mi SSW 4.6 mph - N/A   Clear
6:53 PM 12.0 °F - 5.0 °F 73% 30.26 in 8.0 mi Calm Calm - N/A   Clear
7:53 PM 14.0 °F 8.2 °F 6.1 °F 71% 30.26 in 9.0 mi SW 3.5 mph - N/A   Clear
8:53 PM 10.9 °F 2.9 °F 6.1 °F 81% 30.26 in 6.0 mi South 4.6 mph - N/A   Haze
9:53 PM 12.0 °F 1.5 °F 3.0 °F 67% 30.25 in 10.0 mi South 6.9 mph - N/A   Clear
10:53 PM 12.0 °F 2.7 °F 1.9 °F 64% 30.24 in 10.0 mi South 5.8 mph - N/A   Clear
11:53 PM 10.0 °F -1.9 °F 1.0 °F 67% 30.23 in 10.0 mi South 8.1 mph - N/A   Clear